Check out our new BloomSky Weather System.

Active alerts


No alerts


Thunder radar  blitzortung!


Rain radar more information rain snow radar


Visit our other weather sites:

Template documentation
and downloads

And another site



Weather Underground History page Text

Daily Summary for February 10, 2017 Units:  Metric    English   Both
« Previous Day
Next Day »
Daily Weekly Monthly Yearly Custom
  High: Low: Average:
Temperature: -17.8 °C 8.8 °C 17.7 °C
Dew Point: -17.8 °C 5.7 °C 14.6 °C
Humidity: Humidity % 69 % 82 %
Wind Speed: 0 km/h 0 km/h 5.6 km/h
Wind Gust: 0 km/h - -
Wind:- - SSE
Pressure: 0 hPa 1017.5 hPa -
Precipitation: 0 mm    
Historical Graphs
 
 
Tabular Data for February 10, 2017
Time Temperature Dew Point Pressure Wind Wind Speed Wind Gust Humidity Rainfall Rate (Hourly)
-17.8 °C -17.8 °C 0 hPa Calm     Humidity % 0 mm
00:04 9.3 °C 5.7 °C 1025.3 hPa Calm     78 % 0 mm
00:08 9.3 °C 5.8 °C 1025.3 hPa Calm     79 % 0 mm
00:14 9.5 °C 6 °C 1025.3 hPa Calm     79 % 0 mm
00:19 9.5 °C 6 °C 1024.9 hPa Calm     79 % 0 mm
00:24 9.6 °C 6.3 °C 1024.9 hPa Calm     80 % 0 mm
00:29 9.5 °C 6 °C 1024.9 hPa Calm     79 % 0 mm
00:34 9.7 °C 6.4 °C 1024.9 hPa Calm     80 % 0 mm
00:39 9.9 °C 6.4 °C 1024.9 hPa Calm   1.6 km/h 79 % 0 mm
00:44 10.1 °C 6.4 °C 1025.3 hPa Calm   1.6 km/h 78 % 0 mm
00:49 10.2 °C 6.5 °C 1025.3 hPa Calm   1.6 km/h 78 % 0 mm
00:54 10.2 °C 6.5 °C 1025.3 hPa Calm   1.6 km/h 78 % 0 mm
00:59 10.1 °C 6.4 °C 1025.3 hPa Calm   1.6 km/h 78 % 0 mm
01:04 9.9 °C 6.2 °C 1025.3 hPa Calm   1.6 km/h 78 % 0 mm
01:09 9.7 °C 6 °C 1025.3 hPa Calm   1.6 km/h 78 % 0 mm
01:14 9.4 °C 5.9 °C 1025.3 hPa Calm   1.6 km/h 79 % 0 mm
01:19 9.3 °C 6 °C 1025.3 hPa Calm     80 % 0 mm
01:24 9.4 °C 6.3 °C 1025.3 hPa Calm     81 % 0 mm
01:29 9.4 °C 6.5 °C 1025.3 hPa Calm   1.6 km/h 82 % 0 mm
01:34 9.6 °C 6.7 °C 1025.3 hPa Calm   1.6 km/h 82 % 0 mm
01:39 9.7 °C 6.8 °C 1025.3 hPa Calm   1.6 km/h 82 % 0 mm
01:44 9.8 °C 6.9 °C 1024.9 hPa Calm   1.6 km/h 82 % 0 mm
01:49 10.1 °C 7 °C 1024.9 hPa Calm   1.6 km/h 81 % 0 mm
01:54 10.2 °C 7.1 °C 1024.9 hPa Calm   1.6 km/h 81 % 0 mm
01:59 10.6 °C 7.1 °C 1024.9 hPa ESE 1.6 km/h 1.6 km/h 79 % 0 mm
02:04 10.9 °C 7.2 °C 1024.9 hPa ESE 3.2 km/h 8 km/h 78 % 0 mm
02:09 11 °C 6.9 °C 1024.9 hPa Calm   8 km/h 76 % 0 mm
02:14 11 °C 6.7 °C 1024.9 hPa Calm   8 km/h 75 % 0 mm
02:19 10.9 °C 6.6 °C 1024.9 hPa Calm   3.2 km/h 75 % 0 mm
02:25 10.8 °C 6.5 °C 1024.9 hPa Calm   1.6 km/h 75 % 0 mm
02:30 10.7 °C 6.4 °C 1024.6 hPa Calm   1.6 km/h 75 % 0 mm
02:35 10.4 °C 6.2 °C 1024.6 hPa Calm   1.6 km/h 75 % 0 mm
02:40 10.3 °C 6.3 °C 1024.6 hPa Calm   1.6 km/h 76 % 0 mm
02:45 10.2 °C 6.3 °C 1024.6 hPa Calm   1.6 km/h 77 % 0 mm
02:50 10.1 °C 6.4 °C 1024.6 hPa Calm   1.6 km/h 78 % 0 mm
02:55 9.9 °C 6.2 °C 1024.3 hPa Calm   1.6 km/h 78 % 0 mm
03:00 9.9 °C 6.4 °C 1024.3 hPa Calm   1.6 km/h 79 % 0 mm
03:05 9.7 °C 6 °C 1024.3 hPa Calm   1.6 km/h 78 % 0 mm
03:10 9.5 °C 6 °C 1024.3 hPa Calm   1.6 km/h 79 % 0 mm
03:15 9.4 °C 6.1 °C 1024.3 hPa Calm     80 % 0 mm
03:20 9.2 °C 5.9 °C 1024.3 hPa Calm     80 % 0 mm
03:25 9.1 °C 6 °C 1024.3 hPa Calm     81 % 0 mm
03:30 9.1 °C 6.2 °C 1024.3 hPa Calm     82 % 0 mm
03:35 9 °C 6.1 °C 1023.9 hPa Calm     82 % 0 mm
03:40 9.1 °C 6.4 °C 1023.9 hPa Calm     83 % 0 mm
03:45 9 °C 6.1 °C 1023.9 hPa Calm     82 % 0 mm
03:50 8.8 °C 6.1 °C 1023.9 hPa Calm     83 % 0 mm
03:55 8.8 °C 6.2 °C 1023.9 hPa Calm   1.6 km/h 84 % 0 mm
04:00 8.9 °C 6.3 °C 1023.9 hPa Calm   1.6 km/h 84 % 0 mm
04:05 9 °C 6.3 °C 1023.9 hPa Calm   1.6 km/h 83 % 0 mm
04:11 8.9 °C 6.2 °C 1023.6 hPa Calm     83 % 0 mm
04:16 8.9 °C 6.2 °C 1023.6 hPa Calm     83 % 0 mm
04:21 8.9 °C 6.2 °C 1023.6 hPa Calm     83 % 0 mm
04:26 8.9 °C 6.3 °C 1023.6 hPa Calm     84 % 0 mm
04:31 8.9 °C 6.3 °C 1023.6 hPa Calm     84 % 0 mm
04:36 8.8 °C 6.4 °C 1023.6 hPa Calm   1.6 km/h 85 % 0 mm
04:41 8.8 °C 6.4 °C 1023.6 hPa Calm   1.6 km/h 85 % 0 mm
04:46 8.8 °C 6.4 °C 1023.6 hPa Calm   1.6 km/h 85 % 0 mm
04:51 8.8 °C 6.4 °C 1023.6 hPa Calm   1.6 km/h 85 % 0 mm
04:56 8.8 °C 6.4 °C 1023.6 hPa Calm   1.6 km/h 85 % 0 mm
05:01 8.8 °C 6.4 °C 1023.6 hPa Calm   1.6 km/h 85 % 0 mm
05:06 8.8 °C 6.6 °C 1023.6 hPa Calm   1.6 km/h 86 % 0 mm
05:11 8.9 °C 6.7 °C 1023.6 hPa Calm   1.6 km/h 86 % 0 mm
05:16 8.9 °C 6.7 °C 1023.6 hPa Calm   1.6 km/h 86 % 0 mm
05:21 9.1 °C 7.1 °C 1023.6 hPa Calm   1.6 km/h 87 % 0 mm
05:26 9.2 °C 7.1 °C 1023.6 hPa Calm   1.6 km/h 87 % 0 mm
05:31 9.3 °C 7.2 °C 1023.6 hPa Calm   1.6 km/h 87 % 0 mm
05:36 9.3 °C 7.2 °C 1023.6 hPa Calm   1.6 km/h 87 % 0 mm
05:41 9.3 °C 7.4 °C 1023.6 hPa Calm   1.6 km/h 88 % 0 mm
05:46 9.5 °C 7.6 °C 1023.6 hPa Calm   1.6 km/h 88 % 0 mm
05:52 9.7 °C 7.8 °C 1023.6 hPa Calm   1.6 km/h 88 % 0 mm
05:57 10 °C 8.1 °C 1023.6 hPa Calm   1.6 km/h 88 % 0 mm
06:02 10.2 °C 8.3 °C 1023.6 hPa Calm   3.2 km/h 88 % 0 mm
06:07 10.5 °C 8.6 °C 1023.6 hPa East 1.6 km/h 3.2 km/h 88 % 0 mm
06:12 10.7 °C 8.6 °C 1023.6 hPa Calm   3.2 km/h 87 % 0 mm
06:13 10.7 °C 8.6 °C 1023.6 hPa Calm   3.2 km/h 87 % 0 mm
06:18 10.8 °C 8.7 °C 1023.6 hPa Calm   1.6 km/h 87 % 0 mm
06:23 10.9 °C 8.8 °C 1023.6 hPa Calm   1.6 km/h 87 % 0 mm
06:28 11.1 °C 9 °C 1023.6 hPa Calm   3.2 km/h 87 % 0 mm
06:33 11.2 °C 9.1 °C 1023.6 hPa Calm   3.2 km/h 87 % 0 mm
06:38 11.3 °C 9.2 °C 1023.6 hPa Calm   3.2 km/h 87 % 0 mm
06:43 11.4 °C 9.1 °C 1023.6 hPa Calm   3.2 km/h 86 % 0 mm
06:48 11.6 °C 9.5 °C 1023.6 hPa Calm   3.2 km/h 87 % 0 mm
06:53 11.7 °C 9.6 °C 1023.6 hPa East 1.6 km/h 1.6 km/h 87 % 0 mm
06:58 11.8 °C 9.7 °C 1023.6 hPa ENE 3.2 km/h 3.2 km/h 87 % 0 mm
07:04 11.9 °C 9.6 °C 1023.9 hPa NNW 1.6 km/h 3.2 km/h 86 % 0 mm
07:09 11.9 °C 9.6 °C 1023.9 hPa Calm   3.2 km/h 86 % 0 mm
07:14 12 °C 9.7 °C 1023.9 hPa Calm   4.8 km/h 86 % 0 mm
07:19 12.1 °C 9.8 °C 1023.9 hPa Calm   4.8 km/h 86 % 0 mm
07:24 12.1 °C 9.8 °C 1023.9 hPa Calm   4.8 km/h 86 % 0 mm
07:29 12.2 °C 9.9 °C 1023.9 hPa Calm   3.2 km/h 86 % 0 mm
07:34 12.2 °C 9.9 °C 1023.9 hPa Calm   3.2 km/h 86 % 0 mm
07:39 12.3 °C 10 °C 1023.9 hPa Calm   3.2 km/h 86 % 0 mm
07:44 12.4 °C 10.1 °C 1023.9 hPa Calm   1.6 km/h 86 % 0 mm
07:49 12.6 °C 10.3 °C 1023.9 hPa NE 1.6 km/h 4.8 km/h 86 % 0 mm
07:54 12.7 °C 10.6 °C 1024.3 hPa Calm   4.8 km/h 87 % 0 mm
07:59 12.8 °C 10.5 °C 1024.3 hPa Calm   4.8 km/h 86 % 0 mm
08:04 12.9 °C 10.8 °C 1024.3 hPa Calm   1.6 km/h 87 % 0 mm
08:09 13.1 °C 10.8 °C 1024.3 hPa Calm   1.6 km/h 86 % 0 mm
08:14 13.2 °C 11.1 °C 1024.3 hPa Calm   1.6 km/h 87 % 0 mm
08:19 13.3 °C 11 °C 1024.3 hPa Calm   1.6 km/h 86 % 0 mm
08:24 13.4 °C 11.3 °C 1024.3 hPa Calm   1.6 km/h 87 % 0 mm
08:29 13.6 °C 11.3 °C 1024.3 hPa Calm   1.6 km/h 86 % 0 mm
08:34 13.7 °C 11.4 °C 1024.3 hPa Calm   3.2 km/h 86 % 0 mm
08:39 13.8 °C 11.5 °C 1024.3 hPa Calm   3.2 km/h 86 % 0 mm
08:44 13.9 °C 11.6 °C 1024.3 hPa Calm   3.2 km/h 86 % 0 mm
08:49 14.1 °C 11.8 °C 1024.3 hPa Calm   3.2 km/h 86 % 0 mm
08:54 14.3 °C 12 °C 1024.3 hPa ENE 1.6 km/h 3.2 km/h 86 % 0 mm
08:59 14.5 °C 12.2 °C 1024.3 hPa NNE 1.6 km/h 3.2 km/h 86 % 0 mm
09:04 14.7 °C 12.4 °C 1024.3 hPa NE 1.6 km/h 4.8 km/h 86 % 0 mm
09:10 15 °C 12.9 °C 1024.3 hPa Calm   4.8 km/h 87 % 0 mm
09:15 15.2 °C 12.9 °C 1024.3 hPa Calm   4.8 km/h 86 % 0 mm
09:20 15.4 °C 13.1 °C 1024.3 hPa ENE 1.6 km/h 4.8 km/h 86 % 0 mm
09:25 15.5 °C 13.2 °C 1024.3 hPa East 1.6 km/h 3.2 km/h 86 % 0 mm
09:30 15.7 °C 13.2 °C 1024.3 hPa Calm   3.2 km/h 85 % 0 mm
09:35 15.8 °C 13.3 °C 1024.3 hPa Calm   4.8 km/h 85 % 0 mm
09:40 16.1 °C 13.6 °C 1024.3 hPa Calm   6.4 km/h 85 % 0 mm
09:45 16.2 °C 13.5 °C 1024.3 hPa Calm   8 km/h 84 % 0 mm
09:50 16.5 °C 14 °C 1024.3 hPa SE 3.2 km/h 8 km/h 85 % 0 mm
09:55 16.9 °C 14 °C 1024.3 hPa ESE 1.6 km/h 8 km/h 83 % 0 mm
10:00 17.3 °C 14.4 °C 1024.3 hPa East 1.6 km/h 8 km/h 83 % 0 mm
10:05 17.8 °C 14.7 °C 1024.3 hPa SE 3.2 km/h 8 km/h 82 % 0 mm
10:10 18.2 °C 14.9 °C 1024.3 hPa SE 4.8 km/h 9.7 km/h 81 % 0 mm
10:15 18.6 °C 15.1 °C 1024.3 hPa SE 4.8 km/h 9.7 km/h 80 % 0 mm
10:20 18.9 °C 15.2 °C 1024.3 hPa ESE 8 km/h 16.1 km/h 79 % 0 mm
10:25 19.1 °C 15.2 °C 1023.9 hPa ESE 9.7 km/h 16.1 km/h 78 % 0 mm
10:30 19.3 °C 15.4 °C 1023.9 hPa ESE 8 km/h 16.1 km/h 78 % 0 mm
10:35 19.7 °C 15.6 °C 1023.9 hPa South 12.9 km/h 14.5 km/h 77 % 0 mm
10:40 19.9 °C 15.7 °C 1023.9 hPa SSE 6.4 km/h 14.5 km/h 77 % 0 mm
10:45 20.3 °C 15.9 °C 1023.9 hPa East 4.8 km/h 12.9 km/h 76 % 0 mm
10:50 20.6 °C 16.2 °C 1023.9 hPa SE 3.2 km/h 12.9 km/h 76 % 0 mm
10:55 21 °C 16.4 °C 1023.9 hPa SE 6.4 km/h 12.9 km/h 75 % 0 mm
11:00 21.3 °C 16.5 °C 1023.6 hPa ESE 1.6 km/h 12.9 km/h 74 % 0 mm
11:01 21.3 °C 16.5 °C 1023.6 hPa SE 3.2 km/h 12.9 km/h 74 % 0 mm
11:06 21.4 °C 16.4 °C 1023.6 hPa SSE 6.4 km/h 12.9 km/h 73 % 0 mm
11:08 21.5 °C 16.5 °C 1023.6 hPa South 6.4 km/h 12.9 km/h 73 % 0 mm
11:11 21.4 °C 16.4 °C 1023.6 hPa ESE 6.4 km/h 12.9 km/h 73 % 0 mm
11:14 21.4 °C 16.6 °C 1023.6 hPa SSE 8 km/h 12.9 km/h 74 % 0 mm
11:16 21.4 °C 16.6 °C 1023.6 hPa SE 4.8 km/h 12.9 km/h 74 % 0 mm
11:21 21.6 °C 17 °C 1023.6 hPa South 11.3 km/h 14.5 km/h 75 % 0 mm
11:23 21.7 °C 16.9 °C 1023.6 hPa ESE 14.5 km/h 14.5 km/h 74 % 0 mm
11:26 22 °C 17.4 °C 1023.6 hPa SSE 11.3 km/h 16.1 km/h 75 % 0 mm
11:28 22.1 °C 17.2 °C 1023.2 hPa SSE 9.7 km/h 16.1 km/h 74 % 0 mm
11:31 22.2 °C 17.3 °C 1023.2 hPa SSE 9.7 km/h 19.3 km/h 74 % 0 mm
11:36 22.2 °C 17.3 °C 1023.2 hPa ESE 14.5 km/h 20.9 km/h 74 % 0 mm
11:41 22.3 °C 17.4 °C 1023.2 hPa South 12.9 km/h 22.5 km/h 74 % 0 mm
11:46 22.3 °C 17.4 °C 1023.2 hPa SSE 9.7 km/h 27.4 km/h 74 % 0 mm
11:49 22.3 °C 17.4 °C 1023.2 hPa SSE 11.3 km/h 27.4 km/h 74 % 0 mm
11:51 22.3 °C 17.4 °C 1023.2 hPa SSE 14.5 km/h 27.4 km/h 74 % 0 mm
11:56 22.3 °C 17.4 °C 1023.2 hPa ESE 16.1 km/h 27.4 km/h 74 % 0 mm
12:01 22.5 °C 17.6 °C 1022.9 hPa South 9.7 km/h 22.5 km/h 74 % 0 mm
12:06 22.6 °C 17.7 °C 1022.9 hPa SSE 11.3 km/h 24.1 km/h 74 % 0 mm
12:11 22.9 °C 18 °C 1022.6 hPa SSE 16.1 km/h 24.1 km/h 74 % 0 mm
12:16 23.2 °C 17.9 °C 1022.6 hPa SE 12.9 km/h 24.1 km/h 72 % 0 mm
12:21 23.2 °C 17.9 °C 1022.6 hPa SSE 11.3 km/h 20.9 km/h 72 % 0 mm
12:26 23.2 °C 18.1 °C 1022.6 hPa SSE 9.7 km/h 20.9 km/h 73 % 0 mm
12:31 23.2 °C 17.9 °C 1022.6 hPa ESE 16.1 km/h 20.9 km/h 72 % 0 mm
12:36 23.1 °C 18 °C 1022.2 hPa SSW 14.5 km/h 20.9 km/h 73 % 0 mm
12:41 23.1 °C 18 °C 1022.2 hPa South 11.3 km/h 20.9 km/h 73 % 0 mm
12:46 23.1 °C 18 °C 1022.2 hPa ESE 9.7 km/h 24.1 km/h 73 % 0 mm
12:51 23.3 °C 18.2 °C 1021.9 hPa SSE 9.7 km/h 24.1 km/h 73 % 0 mm
12:56 23.7 °C 18.4 °C 1021.9 hPa SE 17.7 km/h 24.1 km/h 72 % 0 mm
13:01 23.8 °C 18.2 °C 1021.6 hPa South 11.3 km/h 29 km/h 71 % 0 mm
13:06 24.3 °C 18.5 °C 1021.6 hPa SSW 9.7 km/h 29 km/h 70 % 0 mm
13:11 24.6 °C 18.5 °C 1021.6 hPa SSE 14.5 km/h 29 km/h 69 % 0 mm
13:16 24.3 °C 18.2 °C 1021.2 hPa East 19.3 km/h 20.9 km/h 69 % 0 mm
13:21 24.1 °C 18.3 °C 1021.2 hPa SE 12.9 km/h 20.9 km/h 70 % 0 mm
13:26 23.9 °C 18.3 °C 1021.2 hPa ESE 6.4 km/h 20.9 km/h 71 % 0 mm
13:31 23.8 °C 18.2 °C 1021.2 hPa SSE 9.7 km/h 20.9 km/h 71 % 0 mm
13:36 23.8 °C 18.4 °C 1021.2 hPa SW 14.5 km/h 20.9 km/h 72 % 0 mm
13:41 23.7 °C 18.6 °C 1020.9 hPa SSE 12.9 km/h 19.3 km/h 73 % 0 mm
13:46 23.7 °C 18.6 °C 1020.9 hPa SE 4.8 km/h 19.3 km/h 73 % 0 mm
13:51 23.9 °C 18.8 °C 1020.5 hPa SE 9.7 km/h 17.7 km/h 73 % 0 mm
13:56 24 °C 18.6 °C 1020.5 hPa ESE 11.3 km/h 20.9 km/h 72 % 0 mm
14:02 24.1 °C 18.7 °C 1020.5 hPa SE 11.3 km/h 20.9 km/h 72 % 0 mm
14:07 24.1 °C 18.7 °C 1020.5 hPa ESE 16.1 km/h 24.1 km/h 72 % 0 mm
14:12 24.2 °C 18.8 °C 1020.2 hPa SE 14.5 km/h 25.7 km/h 72 % 0 mm
14:17 24.2 °C 18.8 °C 1020.2 hPa SE 9.7 km/h 25.7 km/h 72 % 0 mm
14:22 24.3 °C 18.9 °C 1020.2 hPa SE 17.7 km/h 25.7 km/h 72 % 0 mm
14:27 24.3 °C 18.9 °C 1020.2 hPa SSE 6.4 km/h 22.5 km/h 72 % 0 mm
14:32 24.5 °C 19.1 °C 1019.9 hPa East 4.8 km/h 22.5 km/h 72 % 0 mm
14:37 24.6 °C 19 °C 1019.9 hPa SSE 14.5 km/h 22.5 km/h 71 % 0 mm
14:42 24.3 °C 18.7 °C 1019.9 hPa East 16.1 km/h 20.9 km/h 71 % 0 mm
14:47 24.3 °C 18.9 °C 1019.9 hPa South 16.1 km/h 22.5 km/h 72 % 0 mm
14:52 24.3 °C 18.9 °C 1019.9 hPa SSW 14.5 km/h 22.5 km/h 72 % 0 mm
14:57 24.3 °C 19.1 °C 1019.9 hPa SSE 6.4 km/h 22.5 km/h 73 % 0 mm
15:02 24.3 °C 19.1 °C 1019.9 hPa ESE 17.7 km/h 22.5 km/h 73 % 0 mm
15:07 24.3 °C 19.4 °C 1019.9 hPa SE 11.3 km/h 22.5 km/h 74 % 0 mm
15:12 24.3 °C 19.1 °C 1019.5 hPa SE 12.9 km/h 22.5 km/h 73 % 0 mm
15:17 24.3 °C 19.4 °C 1019.5 hPa SE 8 km/h 20.9 km/h 74 % 0 mm
15:22 24.3 °C 19.4 °C 1019.5 hPa ESE 11.3 km/h 20.9 km/h 74 % 0 mm
15:27 24.3 °C 19.4 °C 1019.5 hPa ESE 9.7 km/h 20.9 km/h 74 % 0 mm
15:32 24.3 °C 19.4 °C 1019.5 hPa SE 9.7 km/h 20.9 km/h 74 % 0 mm
15:37 24.6 °C 19.7 °C 1019.5 hPa SE 12.9 km/h 20.9 km/h 74 % 0 mm
15:42 24.7 °C 19.8 °C 1019.2 hPa SSE 8 km/h 25.7 km/h 74 % 0 mm
15:47 24.7 °C 19.5 °C 1019.2 hPa ESE 12.9 km/h 25.7 km/h 73 % 0 mm
15:52 24.7 °C 19.5 °C 1019.2 hPa SE 14.5 km/h 25.7 km/h 73 % 0 mm
15:57 24.6 °C 19.7 °C 1019.5 hPa ESE 9.7 km/h 22.5 km/h 74 % 0 mm
16:02 24.5 °C 19.6 °C 1019.2 hPa South 3.2 km/h 22.5 km/h 74 % 0 mm
16:07 24.5 °C 19.6 °C 1019.2 hPa SE 9.7 km/h 20.9 km/h 74 % 0 mm
16:12 24.5 °C 19.8 °C 1019.2 hPa ESE 9.7 km/h 20.9 km/h 75 % 0 mm
16:17 24.6 °C 19.7 °C 1019.2 hPa SSE 11.3 km/h 20.9 km/h 74 % 0 mm
16:22 24.6 °C 19.9 °C 1019.2 hPa SE 6.4 km/h 17.7 km/h 75 % 0 mm
16:27 24.8 °C 19.8 °C 1019.2 hPa SE 11.3 km/h 17.7 km/h 74 % 0 mm
16:32 24.6 °C 19.7 °C 1019.2 hPa South 9.7 km/h 22.5 km/h 74 % 0 mm
16:37 24.4 °C 19.7 °C 1019.2 hPa SE 16.1 km/h 22.5 km/h 75 % 0 mm
16:42 24.3 °C 19.8 °C 1019.2 hPa SE 12.9 km/h 22.5 km/h 76 % 0 mm
16:47 24.2 °C 19.9 °C 1019.2 hPa SSE 11.3 km/h 22.5 km/h 77 % 0 mm
16:52 24 °C 19.7 °C 1018.8 hPa SSE 12.9 km/h 22.5 km/h 77 % 0 mm
16:57 23.8 °C 19.7 °C 1018.8 hPa SE 14.5 km/h 20.9 km/h 78 % 0 mm
17:02 23.8 °C 19.9 °C 1018.8 hPa SSE 12.9 km/h 20.9 km/h 79 % 0 mm
17:07 23.7 °C 19.8 °C 1018.8 hPa SSE 8 km/h 20.9 km/h 79 % 0 mm
17:12 23.6 °C 19.7 °C 1018.8 hPa SSE 9.7 km/h 20.9 km/h 79 % 0 mm
17:17 23.5 °C 19.8 °C 1018.8 hPa South 11.3 km/h 20.9 km/h 80 % 0 mm
17:22 23.3 °C 19.9 °C 1018.8 hPa SSE 9.7 km/h 19.3 km/h 81 % 0 mm
17:27 23.2 °C 19.8 °C 1018.8 hPa SSE 4.8 km/h 19.3 km/h 81 % 0 mm
17:32 23.1 °C 19.9 °C 1018.8 hPa South 6.4 km/h 19.3 km/h 82 % 0 mm
17:37 22.9 °C 19.9 °C 1018.8 hPa South 12.9 km/h 19.3 km/h 83 % 0 mm
17:42 22.8 °C 19.8 °C 1018.8 hPa ESE 6.4 km/h 19.3 km/h 83 % 0 mm
17:47 22.8 °C 19.8 °C 1018.8 hPa SE 8 km/h 16.1 km/h 83 % 0 mm
17:52 22.7 °C 19.9 °C 1018.8 hPa SE 11.3 km/h 17.7 km/h 84 % 0 mm
17:57 22.6 °C 19.8 °C 1018.8 hPa South 4.8 km/h 17.7 km/h 84 % 0 mm
18:02 22.5 °C 19.9 °C 1018.8 hPa SSE 9.7 km/h 17.7 km/h 85 % 0 mm
18:07 22.4 °C 19.8 °C 1018.5 hPa South 6.4 km/h 16.1 km/h 85 % 0 mm
18:12 22.4 °C 19.8 °C 1018.5 hPa SE 8 km/h 16.1 km/h 85 % 0 mm
18:17 22.3 °C 19.8 °C 1018.8 hPa SE 6.4 km/h 16.1 km/h 86 % 0 mm
18:22 22.2 °C 19.7 °C 1018.8 hPa SSW 3.2 km/h 16.1 km/h 86 % 0 mm
18:27 22.1 °C 19.8 °C 1018.8 hPa SSE 3.2 km/h 16.1 km/h 87 % 0 mm
18:32 22.1 °C 19.8 °C 1018.8 hPa SSE 6.4 km/h 16.1 km/h 87 % 0 mm
18:37 22.1 °C 20 °C 1018.8 hPa SSE 12.9 km/h 19.3 km/h 88 % 0 mm
18:42 22.1 °C 20 °C 1018.8 hPa SE 9.7 km/h 20.9 km/h 88 % 0 mm
18:47 22.1 °C 20 °C 1018.8 hPa SE 11.3 km/h 20.9 km/h 88 % 0 mm
18:52 22 °C 19.9 °C 1018.5 hPa SSE 9.7 km/h 20.9 km/h 88 % 0 mm
18:57 21.9 °C 20 °C 1018.5 hPa SE 11.3 km/h 14.5 km/h 89 % 0 mm
19:02 21.8 °C 19.9 °C 1018.8 hPa SE 4.8 km/h 12.9 km/h 89 % 0 mm
19:07 21.8 °C 20.1 °C 1018.5 hPa SE 6.4 km/h 12.9 km/h 90 % 0 mm
19:12 21.8 °C 20.1 °C 1018.5 hPa South 6.4 km/h 12.9 km/h 90 % 0 mm
19:17 21.8 °C 20.1 °C 1018.5 hPa SSE 6.4 km/h 12.9 km/h 90 % 0 mm
19:22 21.8 °C 20.1 °C 1018.5 hPa South 9.7 km/h 16.1 km/h 90 % 0 mm
19:27 21.8 °C 20.1 °C 1018.5 hPa ESE 11.3 km/h 17.7 km/h 90 % 0 mm
19:32 21.8 °C 20.1 °C 1018.5 hPa ESE 4.8 km/h 17.7 km/h 90 % 0 mm
19:37 21.7 °C 20 °C 1018.5 hPa SE 3.2 km/h 17.7 km/h 90 % 0 mm
19:42 21.7 °C 20 °C 1018.5 hPa ESE 9.7 km/h 12.9 km/h 90 % 0 mm
19:47 21.7 °C 20.2 °C 1018.5 hPa ESE 3.2 km/h 12.9 km/h 91 % 0 mm
19:52 21.7 °C 20.2 °C 1018.2 hPa SE 9.7 km/h 12.9 km/h 91 % 0 mm
19:57 21.7 °C 20.2 °C 1018.2 hPa SE 14.5 km/h 14.5 km/h 91 % 0 mm
20:02 21.7 °C 20.2 °C 1018.2 hPa South 8 km/h 19.3 km/h 91 % 0 mm
20:07 21.7 °C 20.2 °C 1018.2 hPa SSW 4.8 km/h 19.3 km/h 91 % 0 mm
20:12 21.7 °C 20.2 °C 1018.2 hPa SE 6.4 km/h 19.3 km/h 91 % 0 mm
20:17 21.7 °C 20.2 °C 1018.2 hPa SE 9.7 km/h 20.9 km/h 91 % 0 mm
20:22 21.7 °C 20.2 °C 1018.2 hPa SSE 8 km/h 20.9 km/h 91 % 0 mm
20:27 21.7 °C 20.2 °C 1018.2 hPa SSW 9.7 km/h 20.9 km/h 91 % 0 mm
20:32 21.7 °C 20.2 °C 1018.2 hPa SSW 8 km/h 16.1 km/h 91 % 0 mm
20:37 21.6 °C 20.1 °C 1018.2 hPa SSW 9.7 km/h 16.1 km/h 91 % 0 mm
20:42 21.6 °C 20.2 °C 1018.2 hPa South 9.7 km/h 19.3 km/h 92 % 0 mm
20:47 21.6 °C 20.2 °C 1018.2 hPa South 8 km/h 19.3 km/h 92 % 0 mm
20:52 21.6 °C 20.2 °C 1018.2 hPa SE 11.3 km/h 19.3 km/h 92 % 0 mm
20:57 21.6 °C 20.2 °C 1018.2 hPa SSE 11.3 km/h 12.9 km/h 92 % 0 mm
21:02 21.6 °C 20.2 °C 1018.2 hPa ESE 8 km/h 17.7 km/h 92 % 0 mm
21:07 21.5 °C 20.1 °C 1018.2 hPa SSE 8 km/h 17.7 km/h 92 % 0 mm
21:12 21.5 °C 20.1 °C 1018.2 hPa SSE 9.7 km/h 17.7 km/h 92 % 0 mm
21:17 21.5 °C 20.3 °C 1018.2 hPa South 1.6 km/h 17.7 km/h 93 % 0 mm
21:22 21.5 °C 20.3 °C 1018.2 hPa SE 4.8 km/h 17.7 km/h 93 % 0 mm
21:27 21.5 °C 20.3 °C 1018.2 hPa South 6.4 km/h 17.7 km/h 93 % 0 mm
21:32 21.6 °C 20.4 °C 1018.2 hPa SE 6.4 km/h 12.9 km/h 93 % 0 mm
21:37 21.6 °C 20.4 °C 1018.2 hPa ESE 9.7 km/h 14.5 km/h 93 % 0 mm
21:42 21.6 °C 20.4 °C 1018.2 hPa South 8 km/h 14.5 km/h 93 % 0 mm
21:47 21.6 °C 20.4 °C 1018.2 hPa SE 6.4 km/h 14.5 km/h 93 % 0 mm
21:52 21.6 °C 20.4 °C 1017.8 hPa SSE 6.4 km/h 14.5 km/h 93 % 0 mm
21:57 21.6 °C 20.4 °C 1017.8 hPa SE 12.9 km/h 12.9 km/h 93 % 0 mm
22:02 21.6 °C 20.4 °C 1017.8 hPa SW 3.2 km/h 20.9 km/h 93 % 0 mm
22:07 21.6 °C 20.4 °C 1017.8 hPa SSE 6.4 km/h 20.9 km/h 93 % 0 mm
22:12 21.6 °C 20.4 °C 1017.8 hPa SE 8 km/h 20.9 km/h 93 % 0 mm
22:17 21.6 °C 20.4 °C 1017.8 hPa South 8 km/h 16.1 km/h 93 % 0 mm
22:22 21.6 °C 20.4 °C 1017.8 hPa East 8 km/h 14.5 km/h 93 % 0 mm
22:27 21.6 °C 20.4 °C 1017.8 hPa South 12.9 km/h 19.3 km/h 93 % 0 mm
22:32 21.7 °C 20.5 °C 1017.8 hPa SW 19.3 km/h 19.3 km/h 93 % 0 mm
22:37 21.7 °C 20.5 °C 1017.8 hPa SSE 8 km/h 19.3 km/h 93 % 0 mm
22:42 21.7 °C 20.3 °C 1017.8 hPa SSE 9.7 km/h 19.3 km/h 92 % 0 mm
22:47 21.7 °C 20.3 °C 1017.5 hPa SSE 11.3 km/h 20.9 km/h 92 % 0 mm
22:52 21.7 °C 20.3 °C 1017.5 hPa SSE 8 km/h 20.9 km/h 92 % 0 mm
22:57 21.8 °C 20.4 °C 1017.8 hPa South 6.4 km/h 20.9 km/h 92 % 0 mm
23:02 21.7 °C 20.3 °C 1017.8 hPa South 8 km/h 19.3 km/h 92 % 0 mm
23:07 21.7 °C 20.5 °C 1017.8 hPa South 12.9 km/h 14.5 km/h 93 % 0 mm
23:12 21.7 °C 20.5 °C 1017.5 hPa SE 11.3 km/h 14.5 km/h 93 % 0 mm
23:17 21.7 °C 20.5 °C 1017.5 hPa SW 6.4 km/h 14.5 km/h 93 % 0 mm
23:22 21.7 °C 20.5 °C 1017.5 hPa South 6.4 km/h 14.5 km/h 93 % 0 mm
23:28 21.7 °C 20.5 °C 1017.5 hPa South 6.4 km/h 17.7 km/h 93 % 0 mm
23:33 21.7 °C 20.5 °C 1017.5 hPa SSW 16.1 km/h 19.3 km/h 93 % 0 mm
23:38 21.8 °C 20.6 °C 1017.5 hPa SE 8 km/h 19.3 km/h 93 % 0 mm
23:43 21.7 °C 20.5 °C 1017.5 hPa SE 4.8 km/h 19.3 km/h 93 % 0 mm
23:48 21.7 °C 20.5 °C 1017.5 hPa SSW 6.4 km/h 17.7 km/h 93 % 0 mm
23:53 21.7 °C 20.5 °C 1017.5 hPa SSE 9.7 km/h 17.7 km/h 93 % 0 mm
23:58 21.7 °C 20.5 °C 1017.5 hPa SSW 6.4 km/h 17.7 km/h 93 % 0 mm
Spring, Texas: Villages of Bridgestone
Compliments of Weather Underground - 2.75 mb

Script developed by  Jim McMurry - jmcmurry@mwt.net Adapted for the template by  Wim van der Kuil - Leuven-Template.eu

You find our weather info also at:

UK Metoffice

WeatherCloud

Weather Underground

Mid-South Weather Network

AWEKAS

Citizen Weather Observer Program (CWOP)

HAMweather, WeatherForYou, PWS Weather

Equipment we use:

Weather-station
Davis Vantage Vue

Weather-program
Meteohub

Weather-server
Debian 7.9 x86 (Guest)

Provider
DreamHost

Davis Vantage Vue

Meteohub

Debian 7.9 x86 (Guest)

DreamHost